This is the latest recevied weather packets stored in our database for station/object DN9CHO-13. If no packets are shown the sender has not sent any weather packets the latest 10 day(s).
| Time | Temp. | Humidity | Pressure | Rain* | Wind** | Luminosity | Snow |
|---|---|---|---|---|---|---|---|
| 1787905221 | 19.44° C | 97% | 1011 hPa | 0.51 mm | - | 9 W/m² | - |
| 1787904618 | 19.44° C | 97% | 1010.9 hPa | 0.51 mm | - | 5 W/m² | - |
| 1787904034 | 19.44° C | 98% | 1010.6 hPa | 0.25 mm | - | 3 W/m² | - |
| 1787903430 | 19.44° C | 97% | 1010.6 hPa | 0.25 mm | - | 5 W/m² | - |
| 1787902827 | 19.44° C | 98% | 1010.6 hPa | 0.25 mm | - | 4 W/m² | - |
| 1787902223 | 19.44° C | 98% | 1010.3 hPa | 0.25 mm | - | 4 W/m² | - |
| 1787901619 | 19.44° C | 98% | 1010.3 hPa | 0.25 mm | - | 5 W/m² | - |
| 1787901016 | 19.44° C | 98% | 1010.7 hPa | 0.25 mm | - | 2 W/m² | - |
| 1787900432 | 19.44° C | 97% | 1010.6 hPa | 0.25 mm | - | 3 W/m² | - |
| 1787899829 | 19.44° C | 97% | 1010.5 hPa | 0.25 mm | - | 4 W/m² | - |
| 1787899225 | 20° C | 96% | 1010.4 hPa | 0.25 mm | - | 3 W/m² | - |
| 1787898621 | 20° C | 95% | 1010.5 hPa | 0.25 mm | - | 3 W/m² | - |
| 1787898017 | 20° C | 94% | 1010.7 hPa | 0 mm | - | 2 W/m² | - |
| 1787897434 | 20° C | 94% | 1010.5 hPa | 0 mm | - | 1 W/m² | - |
| 1787896830 | 20° C | 94% | 1010.3 hPa | 0 mm | - | 1 W/m² | - |
| 1787896226 | 20° C | 93% | 1010.4 hPa | 0 mm | - | 2 W/m² | - |
| 1787895623 | 20° C | 92% | 1010.4 hPa | 0 mm | - | 1 W/m² | - |
| 1787895019 | 20.56° C | 90% | 1010.5 hPa | 0 mm | - | 1 W/m² | - |
| 1787894415 | 20.56° C | 90% | 1010.2 hPa | 0 mm | - | 1 W/m² | - |
| 1787893832 | 20° C | 91% | 1010.3 hPa | 0 mm | - | 0 W/m² | - |
| 1787893228 | 20° C | 91% | 1010 hPa | 0 mm | - | 0 W/m² | - |
| 1787892624 | 20° C | 91% | 1009.6 hPa | 0 mm | - | 0 W/m² | - |
| 1787892020 | 20° C | 91% | 1009.6 hPa | 0 mm | - | 0 W/m² | - |
| 1787891417 | 20.56° C | 90% | 1009.3 hPa | 0 mm | - | 0 W/m² | - |
| 1787890833 | 20.56° C | 90% | 1009.3 hPa | 0 mm | - | 0 W/m² | - |
* Rain latest hour (hover to see other rain measurements)
** Current wind speed in m/s (hover to see current wind gust speed)